Retour au catalogue

STARLINK-31564

ActifCommunicationsVLEO
NORAD 59526·PAYLOAD·🇺🇸 United States

Lancé Apr 17, 2024 depuis Cape Canaveral Space Force Station

Loading…

Prochains Passages (prochaines 24 heures)

TLE

FraisSource: CelesTrak SupGP

Époque: Sep 14, 2026, 22:50 UTC

1 59526C 24073R   26257.95187500 -.00012217  00000+0 -44257-3 0  2576
2 59526  43.0009 328.8778 0001434 263.5609 116.3368 15.27580409    11

Suivez STARLINK-31564 en temps réel avec AllMySat

Download on the App Store